Frederick, OK

4:17 PM CST on February 19, 2017 (GMT -0600)
Frederick Municipal

Weather History for KFDR - January, 2013

Change the Weather History Date:

Monday, January 21, 2013

  Actual Average (KLTS) Record (KLTS)
Temperature  
Mean Temperature 37 °F -  
Max Temperature 48 °F 50 °F 72 °F (2009)
Min Temperature 26 °F 27 °F 12 °F (2011)
Degree Days  
Heating Degree Days 28    
Moisture  
Dew Point 17 °F    
Average Humidity 45    
Maximum Humidity 65    
Minimum Humidity 27    
Precipitation  
Precipitation 0.00 in - - ()
Sea Level Pressure  
Sea Level Pressure 30.28 in    
Wind  
Wind Speed 10 mph (NNE)    
Max Wind Speed 16 mph    
Max Gust Speed 20 mph    
Visibility 10 miles    
Events      
Averages and records for this station are not official NWS values.
T = Trace of Precipitation, MM = Missing Value Source: NWS Daily Summary

Daily Weather History Graph

Daily Weather History Graph

Search for Another Location

Airport or City:

Trip Planner

Search our weather history database for the weather conditions in past years. The results will help you decide how hot, cold, wet, or windy it might be!

Date:

Astronomy

Jan. 21, 2013 Rise Set
Actual Time 7:39 AM CST 5:55 PM CST
Civil Twilight 7:12 AM CST 6:22 PM CST
Nautical Twilight 6:42 AM CST 6:52 PM CST
Astronomical Twilight 6:12 AM CST 7:22 PM CST
Moon 1:37 PM CST (1/21) 3:08 AM CST (1/21)
Length of Visible Light 11h 09m
Length of Day
10h 15m
Waxing Gibbous, 75% of the Moon is Illuminated
Jan 21
Waxing Gibbous
Jan 26
Full
Feb 3
Last Quarter
Feb 10
New
Feb 17
First Quarter

Hourly Weather History & Observations

Time (CST) Temp. Windchill Dew Point Humidity Pressure Visibility Wind Dir Wind Speed Gust Speed Precip Events Conditions
12:53 AM 41.0 °F 33.5 °F 30.0 °F 65% 30.18 in 10.0 mi NNE 13.8 mph - N/A   Clear
1:53 AM 39.0 °F 30.3 °F 26.1 °F 60% 30.20 in 10.0 mi NNE 16.1 mph - N/A   Clear
3:53 AM 32.0 °F 21.2 °F 19.0 °F 59% 30.23 in 10.0 mi NNE 16.1 mph - N/A   Clear
4:53 AM 30.0 °F 21.1 °F 18.0 °F 61% 30.25 in 10.0 mi NNE 10.4 mph - N/A   Clear
6:53 AM 26.1 °F 16.2 °F 15.1 °F 63% 30.31 in 10.0 mi North 10.4 mph - N/A   Clear
7:53 AM 26.1 °F 15.6 °F 14.0 °F 60% 30.34 in 10.0 mi North 11.5 mph - N/A   Clear
8:53 AM 28.9 °F 17.7 °F 12.9 °F 51% 30.36 in 10.0 mi North 15.0 mph - N/A   Clear
9:53 AM 32.0 °F 23.0 °F 12.0 °F 44% 30.39 in 10.0 mi North 11.5 mph - N/A   Clear
10:53 AM 35.1 °F 27.9 °F 12.0 °F 39% 30.39 in 10.0 mi North 9.2 mph - N/A   Clear
11:53 AM 39.9 °F 32.5 °F 12.9 °F 33% 30.36 in 10.0 mi North 12.7 mph 19.6 mph N/A   Clear
12:53 PM 43.0 °F 38.8 °F 12.9 °F 30% 30.32 in 10.0 mi North 6.9 mph - N/A   Clear
1:53 PM 46.0 °F 44.8 °F 14.0 °F 28% 30.28 in 10.0 mi Variable 3.5 mph - N/A   Clear
2:53 PM 46.9 °F - 14.0 °F 27% 30.26 in 10.0 mi Variable 4.6 mph - N/A   Clear
3:53 PM 48.0 °F - 15.1 °F 27% 30.25 in 10.0 mi Calm Calm - N/A   Clear
4:53 PM 48.0 °F - 15.1 °F 27% 30.24 in 10.0 mi East 4.6 mph - N/A   Clear
5:53 PM 44.1 °F 41.5 °F 16.0 °F 32% 30.24 in 10.0 mi ESE 4.6 mph - N/A   Clear
6:53 PM 39.0 °F 34.8 °F 17.1 °F 41% 30.25 in 10.0 mi East 5.8 mph - N/A   Clear
7:53 PM 37.0 °F 32.4 °F 18.0 °F 46% 30.25 in 10.0 mi ESE 5.8 mph - N/A   Clear
8:53 PM 35.1 °F - 17.1 °F 48% 30.27 in 10.0 mi Calm Calm - N/A   Clear
9:53 PM 33.1 °F - 17.1 °F 52% 30.27 in 10.0 mi Calm Calm - N/A   Clear
10:53 PM 34.0 °F - 18.0 °F 52% 30.26 in 10.0 mi Calm Calm - N/A   Clear
11:53 PM 33.1 °F 30.0 °F 18.0 °F 54% 30.25 in 10.0 mi Variable 3.5 mph - N/A   Clear